Regional Weather Roundup
Issued by NWS Bismarck, ND

Home | Current Version | Previous Version | Text Only | Print | Product List | Glossary On
Versions: 1 2 3 4 5 6 7 8 9 10 11 12 13 14 15 16 17 18 19 20 21 22 23 24 25 26 27 28 29 30 31 32 33 34 35 36 37 38 39 40 41 42 43 44 45 46 47 48 49 50
000
ASUS43 KBIS 061110
RWRBIS

NWR BROADCAST TEXT
NATIONAL WEATHER SERVICE BISMARCK ND
600 AM CDT MON JUL 06 2015

NOTE: "FAIR" INDICATES FEW OR NO CLOUDS BELOW 12,000 FEET WITH NO
SIGNIFICANT WEATHER AND/OR OBSTRUCTIONS TO VISIBILITY.


CITY           SKY/WX    TMP DP  RH WIND       PRES   REMARKS
WILLISTON      MOCLDY    56  51  84 W6        30.15R
MINOT          CLOUDY    52  49  89 W5        30.11R FOG
MINOT AFB      MOCLDY    52  52 100 N5        30.11R FOG
BISMARCK       CLOUDY    61  53  75 N8        30.08R
DICKINSON      MOCLDY    54  51  90 NW5       30.13R
GARRISON         N/A     54  52  93 NW7       30.11R
HETTINGER ARPT CLOUDY    57  52  83 NW5       30.15R
JAMESTOWN      CLOUDY    59  56  89 N8        30.03R FOG
BEACH          LGT RAIN  55  55 100 N7        30.18R
CROSBY         FAIR      54  54 100 NW8       30.16R FOG
HARVEY         FAIR      55  55 100 NE8       30.08S FOG
HAZEN          FAIR      55  52  88 N3        30.12R
LINTON         FAIR      59  59 100 NW5       30.07R FOG
MANDAN         PTSUNNY   57  54  88 N8        30.10R
OAKES            N/A     63  63 100 NW10      29.98R FOG
STANLEY        FAIR      52  52 100 CALM      30.14R FOG
$$

CITY           SKY/WX    TMP DP  RH WIND       PRES   REMARKS
GRAND FORKS    CLOUDY    56  52  86 N7        30.00R
GRAND FORKS AF CLOUDY    55  49  79 N12       30.02R
DEVILS LAKE    CLOUDY    57  48  72 NE6       30.06R
FARGO          CLOUDY    62  58  86 N14G23    29.96R FOG
CANDO          CLOUDY    52  50  93 N3        30.09R
CAVALIER       FAIR      54  48  82 N7        30.05S
GRAFTON        FAIR      54  52  94 N10       30.04S
GWINNER          N/A     64  61  88 N9        29.97R
LANGDON        CLOUDY    54  50  87 NE8       30.07S
ROLLA          PTSUNNY   50  50 100 N9        30.10R
WALHALLA       FAIR      54  54 100 MISG      30.07R
$$

CITY           SKY/WX    TMP DP  RH WIND       PRES   REMARKS
ABERDEEN       CLOUDY    65  62  90 N9        29.95F FOG
MOBRIDGE       CLOUDY    64  61  90 N8        30.02R FOG
BUFFALO          N/A     58  53  84 NW16      30.10S
RAPID CITY     CLOUDY    60  56  86 N16       30.15R FOG
GLASGOW        MOCLDY    55  51  86 NW6       30.18S
SIDNEY         CLOUDY    57  52  82 W9        30.17R
WOLF POINT     CLOUDY    57  54  89 W6        30.19R
GLENDIVE       CLOUDY    55  54  94 NW13      30.19R
MILES CITY     CLOUDY    57  54  89 NW8       30.22R
BAKER          LGT RAIN  57  55  93 W8        30.19S
$$

CITY           SKY/WX    TMP DP  RH WIND       PRES   REMARKS
BILLINGS       CLOUDY    55  47  74 CALM      30.27R
GREAT FALLS    MOCLDY    48  47  96 W3        30.26S
REGINA         PTCLDY    43  43 100 N3        30.18R
ESTEVAN        CLOUDY    54  52  94 N6        30.14S SMOKE
$$




USA.gov is the U.S. government's official web portal to all federal, state and local government web resources and services.